Kuchera_Ratio
0.0 0.0 0.0 0.0 0.0 0.0 0.0 0.0 0.0 0.0 0.0 0.0 0.0 0.0 0.0 0.0 0.0 0.0 0.0 0.0 0.0 0.2 0.0 2.7 2.7 1.5 0.0 0.0 0.0 1.2 0.0 4.0 9.7 4.0 1.7 0.4 0.0 2.4 2.1 8.8 9.8 9.6 11.2 4.0
0.0 0.0 0.0 0.0 0.0 0.0 0.0 0.0 0.0 0.0 0.0 0.0 0.0 0.0 0.0 0.0 0.0 0.0 0.0 0.0 0.0 0.0 0.0 2.5 1.7 0.0 0.0 0.0 0.0 0.0 0.0 5.0 9.6 10.5 5.6 3.8 4.2 1.9 3.4 4.1 6.0 6.7 10.6 4.6
0.0 0.0 0.0 0.0 0.0 0.0 0.0 0.0 0.0 0.0 0.0 0.0 0.0 0.0 0.0 0.0 0.0 0.0 0.0 0.0 0.0 0.1 1.4 0.0 0.9 0.3 0.0 0.0 0.0 0.0 0.0 4.6 6.5 8.4 4.6 2.7 5.4 2.0 1.1 3.4 9.6 6.3 6.0 0.0
0.0 0.0 0.0 0.0 0.0 0.0 0.0 0.0 0.0 0.0 0.0 0.0 0.0 0.0 0.0 0.0 0.0 0.0 0.0 0.0 0.0 0.0 2.1 3.3 3.2 0.4 0.7 0.0 0.0 0.0 0.1 5.4 4.9 2.4 2.9 3.2 2.4 1.3 3.2 6.2 2.0 6.7 0.0 0.0
0.0 0.0 0.0 0.0 0.0 0.0 0.0 0.0 0.0 0.8 1.3 0.5 0.4 0.6 0.0 0.0 0.0 0.0 0.2 0.6 0.0 0.0 1.7 0.0 0.0 0.0 0.5 0.0 3.6 2.4 2.9 5.8 6.7 5.6 3.5 5.1 6.6 2.6 4.0 3.7 3.4 5.0 3.7 0.0
0.0 0.0 0.0 0.0 0.0 0.0 0.0 0.0 0.0 0.2 1.0 2.8 4.0 1.2 0.0 0.0 0.0 0.0 0.0 0.0 0.2 1.3 0.0 0.0 0.0 0.0 0.0 0.0 0.0 3.1 5.3 6.7 8.2 9.4 7.1 7.0 8.3 0.9 0.1 2.5 2.5 0.8 3.2 0.0
0.0 0.0 0.0 0.0 0.0 0.0 0.0 0.0 0.0 2.5 7.5 4.8 3.1 0.0 0.4 0.0 0.0 0.0 0.0 0.0 0.0 0.0 0.0 0.0 0.0 0.0 0.0 0.5 0.6 0.7 5.4 7.0 6.6 11.2 7.9 14.0 0.0 0.0 0.0 0.0 0.0 0.0 0.0 0.0
0.0 0.0 0.0 0.0 0.0 0.0 0.0 0.0 0.0 1.8 6.1 3.4 4.8 2.9 3.7 0.6 0.0 0.0 0.0 0.0 0.0 0.0 0.0 0.5 5.5 7.0 4.5 6.7 6.9 5.4 3.2 6.5 8.5 12.2 13.0 6.9 0.0 0.0 0.0 0.0 0.0 0.0 0.0 0.0
0.0 0.0 0.0 0.0 0.0 0.0 0.0 0.0 0.0 0.0 2.7 5.4 0.0 1.0 0.0 4.9 3.8 3.1 0.0 0.0 0.0 0.0 1.7 2.9 10.2 11.1 6.0 9.9 10.8 8.7 7.7 6.0 7.1 13.8 13.7 14.2 0.0 0.0 0.0 0.0 2.3 0.0 0.0 0.0
0.0 0.0 0.0 0.0 0.0 0.0 0.0 0.0 0.0 0.0 5.8 0.0 0.0 2.8 0.9 0.0 2.1 4.4 2.9 2.3 2.3 0.4 4.9 9.8 10.5 10.6 6.4 10.2 8.6 8.3 13.0 12.9 13.2 14.2 14.2 10.5 0.0 0.0 0.0 9.0 0.3 0.0 0.0 0.0
0.0 0.0 0.0 0.0 0.0 0.0 0.0 0.0 0.0 0.0 3.7 1.8 0.0 0.0 0.0 0.8 0.5 5.0 2.9 2.9 5.4 8.1 8.2 10.5 8.9 9.3 7.5 8.5 8.0 8.6 7.9 9.8 12.2 13.7 16.0 14.5 0.0 0.0 2.2 0.0 0.0 0.0 0.0 0.0
0.0 0.0 0.0 0.0 0.0 0.0 0.0 0.0 0.0 0.0 3.0 2.3 0.0 0.0 0.0 0.0 0.0 0.0 1.3 0.8 3.2 2.1 6.5 8.6 9.3 10.7 11.3 9.9 12.8 7.1 9.1 4.1 5.2 5.2 3.1 0.0 0.0 0.0 0.0 0.0 0.0 0.0 0.0 0.0
0.0 0.0 0.0 0.0 0.0 0.0 0.0 0.0 0.0 0.0 4.1 3.5 3.8 3.2 0.0 0.0 0.0 0.0 2.2 3.4 0.0 0.0 0.0 4.1 5.5 11.3 8.8 10.5 8.9 6.2 5.0 3.3 5.2 4.7 0.0 0.0 0.0 0.0 0.0 0.0 0.0 0.0 0.0 0.0
0.0 0.0 0.0 0.0 0.0 0.0 0.0 0.0 0.0 0.0 2.6 10.2 8.0 0.0 0.0 0.0 0.0 0.0 0.0 0.0 0.0 0.2 1.3 5.3 7.2 8.6 2.2 8.5 3.8 6.3 1.1 3.2 4.1 6.1 0.0 0.0 0.0 0.0 0.0 0.0 0.0 0.0 0.0 0.0
0.0 0.0 0.0 0.0 0.0 0.0 0.0 0.0 0.0 0.0 2.3 11.0 8.9 0.6 0.0 0.0 0.0 0.0 0.0 0.0 0.9 4.8 8.2 8.7 9.6 7.6 6.4 9.7 10.3 12.0 4.5 2.4 3.3 3.0 0.0 0.0 0.0 0.0 0.0 0.0 0.0 0.0 0.0 0.0
0.0 0.0 0.0 0.0 0.0 0.0 0.1 5.8 0.0 0.0 0.0 8.3 13.0 0.9 2.1 3.2 0.4 0.5 2.2 0.8 2.5 6.2 7.3 7.2 5.9 3.6 4.4 11.0 14.0 2.4 0.0 0.0 0.0 0.0 0.0 0.0 0.0 0.0 0.0 0.0 0.0 0.0 0.0 0.0
0.0 0.0 0.0 0.0 0.0 0.0 4.5 6.5 0.0 0.0 0.1 9.5 13.2 9.5 5.2 3.7 3.8 4.9 5.4 2.0 4.3 5.1 6.9 8.9 7.8 7.4 4.7 9.6 12.3 0.4 0.0 0.0 0.0 0.0 0.0 0.0 0.0 0.0 0.0 0.0 0.0 0.0 0.0 0.0
0.0 0.0 0.0 0.0 0.0 0.0 1.6 0.0 0.0 0.0 3.6 7.4 15.4 13.0 10.7 4.0 8.9 9.4 4.5 8.0 6.4 6.6 6.9 7.6 10.0 8.3 7.4 12.3 7.6 1.6 0.3 0.0 0.0 0.0 0.0 0.0 0.0 0.0 0.0 0.0 0.0 0.0 0.2 0.0
0.0 0.0 0.0 0.0 2.7 7.4 4.4 0.0 0.0 0.0 3.9 13.1 12.4 15.6 15.3 6.2 8.8 7.5 7.5 6.5 12.6 7.0 11.0 9.9 8.3 11.0 13.2 10.1 7.9 7.5 6.5 6.9 6.5 4.1 3.2 2.3 1.9 2.2 0.8 0.0 0.0 1.2 1.1 0.0
0.0 0.0 6.0 12.2 5.5 0.0 0.0 3.4 7.6 8.7 6.8 7.7 13.9 12.4 14.2 10.0 9.6 10.2 12.2 9.7 12.9 15.1 12.3 8.3 11.7 13.4 11.5 10.8 7.7 7.6 7.5 6.3 6.1 9.8 9.3 6.8 6.6 5.9 4.5 3.8 2.7 2.7 2.0 1.9
2.7 7.8 11.8 5.2 0.0 4.8 9.1 13.7 12.9 11.2 12.7 10.0 10.4 11.4 13.0 8.5 13.1 12.5 11.6 13.7 13.7 15.9 13.7 13.4 14.0 14.7 13.5 12.0 10.0 8.4 8.7 8.1 7.7 7.0 7.2 7.1 5.6 6.3 6.0 5.1 4.5 4.4 4.3 4.7
3.2 7.1 5.6 6.9 10.8 14.2 15.4 16.8 14.0 14.3 15.7 12.8 13.5 13.1 10.5 8.9 9.7 11.7 12.4 14.3 14.7 16.9 10.6 13.6 15.7 14.5 12.5 12.3 10.7 9.0 10.6 9.4 9.1 7.7 8.0 6.1 5.7 5.8 5.8 6.6 6.7 6.6 6.3 6.2
3.7 8.2 13.1 15.6 15.9 18.7 19.9 20.3 19.5 18.0 15.1 14.3 14.6 15.1 13.2 10.1 8.8 11.7 12.4 14.6 15.4 12.3 14.9 16.8 16.6 13.5 12.7 12.7 11.3 10.3 10.0 9.9 9.2 8.5 7.7 6.1 6.7 5.8 6.7 7.9 7.7 6.9 7.3 7.2
12.8 15.8 18.8 17.7 19.4 19.0 18.4 18.4 18.8 15.5 15.5 15.4 14.1 15.5 14.0 13.4 15.2 13.5 18.3 15.0 14.3 17.5 18.4 19.4 16.0 14.7 14.1 12.4 11.1 11.4 12.1 11.6 11.5 12.3 11.1 10.6 10.4 9.4 8.6 8.3 7.3 6.4 6.2 6.7
15.7 16.2 18.5 19.4 16.4 16.0 15.9 16.0 16.0 15.6 15.0 16.6 16.6 16.1 13.5 15.8 16.5 14.2 16.2 18.8 18.2 17.9 19.2 16.2 14.2 14.1 14.7 13.7 12.4 13.6 13.7 13.2 12.8 12.5 12.2 11.8 10.9 10.3 9.7 9.5 8.9 8.2 8.1 8.1
16.0 16.7 18.8 16.9 17.4 17.8 15.7 16.2 16.3 14.1 15.1 14.8 15.0 15.3 17.4 17.5 16.6 17.1 18.4 19.5 20.5 18.1 16.9 13.8 14.6 14.3 14.4 14.1 13.1 13.1 13.2 13.0 12.8 12.6 12.6 12.3 12.1 12.1 11.8 10.5 10.1 9.8 9.6 9.4
16.0 17.2 16.6 16.6 16.6 17.0 16.5 16.3 16.2 14.3 16.1 18.3 16.9 19.0 19.4 17.6 17.9 18.7 17.2 18.6 16.4 14.6 13.9 13.6 13.9 14.5 14.9 14.2 13.7 13.4 13.2 13.1 13.2 13.0 12.8 12.7 12.4 12.1 12.0 12.3 12.6 12.4 11.9 12.0